Location: Flitcham
(52.8000°N, 0.5667°E)
Time: 07:50:31
(UTC+00:00)

ACS3 Solar Sail - Pass Details

Date: 15 May 2026
Orbit: 883 x 949 km, 97.2° (Epoch: 5 June)

Event Time Altitude Azimuth Distance (km) Brightness Sun altitude
Rises 23:27:56 0° 21° (NNE) 3,506 5.8 -17.9°
Reaches altitude 10° 23:31:00 10° 38° (NE) 2,557 4.6 -18.0°
Maximum altitude 23:35:12 21° 86° (E) 1,896 3.3 -18.0°
Enters shadow 23:38:17 14° 124° (SE) 2,277 3.4 -18.1°
